| time (UTC) | temp C | wind direction | speed KPH | gust KPH | rain 1hr cm | rain 24hr cm | rain mn cm | humidity % | barometer mb |
| 20260504035515 | 12 | 270 | 1.6 | 6.4 | 0.00 | 0.00 | 0.00 | 47 | 1001.3 |
| 20260504034516 | 12 | 270 | 1.6 | 4.8 | 0.00 | 0.00 | 0.00 | 48 | 1001.4 |
| 20260504033616 | 12 | 0.0 | 0.0 | 0.00 | 0.00 | 0.00 | 46 | 1001.7 | |
| 20260504032515 | 12 | 0.0 | 0.0 | 0.00 | 0.00 | 0.00 | 46 | 1001.8 | |
| 20260504031535 | 12 | 0.0 | 3.2 | 0.00 | 0.00 | 0.00 | 45 | 1002.0 | |
| 20260504030515 | 12 | 270 | 1.6 | 4.8 | 0.00 | 0.00 | 0.00 | 45 | 1002.2 |
| 20260504025516 | 13 | 0.0 | 3.2 | 0.00 | 0.00 | 0.00 | 44 | 1002.3 | |
| 20260504024516 | 13 | 0.0 | 0.0 | 0.00 | 0.00 | 0.00 | 43 | 1002.2 | |
| 20260504023535 | 14 | 0.0 | 0.0 | 0.00 | 0.00 | 0.00 | 40 | 1002.4 | |
| 20260504022516 | 15 | 0.0 | 0.0 | 0.00 | 0.00 | 0.00 | 38 | 1002.5 | |
| 20260504021515 | 15 | 0.0 | 0.0 | 0.00 | 0.00 | 0.00 | 38 | 1002.5 | |
| 20260504020515 | 16 | 0.0 | 0.0 | 0.00 | 0.00 | 0.00 | 37 | 1002.5 | |
| 20260504015515 | 16 | 0.0 | 0.0 | 0.00 | 0.00 | 0.00 | 36 | 1002.4 | |
| 20260504014536 | 16 | 0.0 | 3.2 | 0.00 | 0.00 | 0.00 | 35 | 1002.3 | |
| 20260504013515 | 17 | 270 | 1.6 | 4.8 | 0.00 | 0.00 | 0.00 | 35 | 1002.4 |
| 20260504012515 | 17 | 0.0 | 3.2 | 0.00 | 0.00 | 0.00 | 34 | 1002.5 | |
| 20260504011515 | 17 | 270 | 1.6 | 3.2 | 0.00 | 0.00 | 0.00 | 32 | 1002.3 |
| 20260504010515 | 18 | 0.0 | 0.0 | 0.00 | 0.00 | 0.00 | 31 | 1002.4 | |
| 20260504005515 | 18 | 0.0 | 1.6 | 0.00 | 0.00 | 0.00 | 30 | 1002.4 | |
| 20260504004515 | 19 | 270 | 1.6 | 6.4 | 0.00 | 0.00 | 0.00 | 30 | 1002.5 |
| 20260504003515 | 19 | 270 | 1.6 | 3.2 | 0.00 | 0.00 | 0.00 | 29 | 1002.4 |
| 20260504002515 | 19 | 0.0 | 1.6 | 0.00 | 0.00 | 0.00 | 31 | 1002.6 | |
| 20260504001515 | 19 | 293 | 3.2 | 11.3 | 0.00 | 0.00 | 0.00 | 29 | 1002.7 |
| 20260504000515 | 19 | 270 | 3.2 | 6.4 | 0.00 | 0.00 | 0.00 | 30 | 1002.7 |
| 20260503235517 | 20 | 270 | 1.6 | 4.8 | 0.00 | 0.00 | 0.00 | 28 | 1002.6 |
| 20260503234537 | 20 | 293 | 1.6 | 9.7 | 0.00 | 0.00 | 0.00 | 27 | 1002.7 |
| 20260503233517 | 21 | 293 | 3.2 | 9.7 | 0.00 | 0.00 | 0.00 | 26 | 1002.6 |
| 20260503232517 | 21 | 293 | 4.8 | 16.1 | 0.00 | 0.00 | 0.00 | 26 | 1002.7 |
| 20260503231537 | 21 | 293 | 3.2 | 8.0 | 0.00 | 0.00 | 0.00 | 28 | 1003.0 |
| 20260503230517 | 21 | 293 | 4.8 | 12.9 | 0.00 | 0.00 | 0.00 | 27 | 1003.0 |
| 20260503225537 | 21 | 293 | 3.2 | 12.9 | 0.00 | 0.00 | 0.00 | 27 | 1003.0 |
| 20260503224517 | 21 | 293 | 4.8 | 11.3 | 0.00 | 0.00 | 0.00 | 26 | 1003.1 |
| 20260503223517 | 21 | 293 | 4.8 | 14.5 | 0.00 | 0.00 | 0.00 | 26 | 1003.3 |
| 20260503222517 | 21 | 315 | 3.2 | 8.0 | 0.00 | 0.00 | 0.00 | 28 | 1003.3 |
| 20260503221518 | 21 | 293 | 4.8 | 14.5 | 0.00 | 0.00 | 0.00 | 27 | 1003.4 |
| 20260503220537 | 21 | 293 | 6.4 | 14.5 | 0.00 | 0.00 | 0.00 | 26 | 1003.4 |
| 20260503215517 | 21 | 270 | 6.4 | 19.3 | 0.00 | 0.00 | 0.00 | 27 | 1003.5 |
| 20260503214517 | 21 | 293 | 6.4 | 16.1 | 0.00 | 0.00 | 0.00 | 25 | 1003.7 |
| 20260503213517 | 21 | 293 | 6.4 | 16.1 | 0.00 | 0.00 | 0.00 | 26 | 1003.8 |
| 20260503212537 | 21 | 315 | 4.8 | 12.9 | 0.00 | 0.00 | 0.00 | 26 | 1003.8 |
| 20260503211517 | 21 | 293 | 4.8 | 11.3 | 0.00 | 0.00 | 0.00 | 27 | 1004.0 |
| 20260503210517 | 21 | 293 | 4.8 | 14.5 | 0.00 | 0.00 | 0.00 | 27 | 1004.0 |
| 20260503205517 | 21 | 293 | 4.8 | 12.9 | 0.00 | 0.00 | 0.00 | 25 | 1004.2 |
| 20260503204517 | 21 | 338 | 6.4 | 14.5 | 0.00 | 0.00 | 0.00 | 27 | 1004.4 |
| 20260503203517 | 21 | 338 | 6.4 | 17.7 | 0.00 | 0.00 | 0.00 | 24 | 1004.4 |
| 20260503202517 | 21 | 293 | 4.8 | 11.3 | 0.00 | 0.00 | 0.00 | 25 | 1004.4 |
| 20260503201517 | 21 | 315 | 4.8 | 12.9 | 0.00 | 0.00 | 0.00 | 26 | 1004.6 |
| 20260503200517 | 20 | 338 | 6.4 | 20.9 | 0.00 | 0.00 | 0.00 | 25 | 1004.7 |
| 20260503195517 | 20 | 315 | 8.0 | 20.9 | 0.00 | 0.00 | 0.00 | 24 | 1004.7 |
| 20260503194517 | 20 | 338 | 8.0 | 16.1 | 0.00 | 0.00 | 0.00 | 23 | 1004.8 |
| 20260503193517 | 20 | 315 | 8.0 | 17.7 | 0.00 | 0.00 | 0.00 | 24 | 1004.7 |
| 20260503192517 | 21 | 338 | 8.0 | 22.5 | 0.00 | 0.00 | 0.00 | 26 | 1005.0 |
| 20260503191517 | 21 | 338 | 6.4 | 16.1 | 0.00 | 0.00 | 0.00 | 31 | 1004.8 |
| 20260503190517 | 20 | 315 | 6.4 | 17.7 | 0.00 | 0.00 | 0.00 | 31 | 1004.9 |
| 20260503185517 | 20 | 293 | 8.0 | 17.7 | 0.00 | 0.00 | 0.00 | 30 | 1005.0 |
| 20260503184537 | 20 | 293 | 6.4 | 19.3 | 0.00 | 0.00 | 0.00 | 28 | 1005.1 |
| 20260503183517 | 20 | 338 | 4.8 | 12.9 | 0.00 | 0.00 | 0.00 | 32 | 1005.1 |
| 20260503182517 | 20 | 315 | 4.8 | 14.5 | 0.00 | 0.00 | 0.00 | 35 | 1005.2 |
| 20260503181517 | 20 | 293 | 6.4 | 16.1 | 0.00 | 0.00 | 0.00 | 32 | 1005.4 |
| 20260503180516 | 20 | 338 | 8.0 | 17.7 | 0.00 | 0.00 | 0.00 | 34 | 1005.4 |
| 20260503175516 | 19 | 338 | 6.4 | 20.9 | 0.00 | 0.00 | 0.00 | 35 | 1005.5 |
| 20260503174517 | 19 | 338 | 6.4 | 24.1 | 0.00 | 0.00 | 0.00 | 37 | 1005.6 |
| 20260503173517 | 19 | 338 | 8.0 | 16.1 | 0.00 | 0.00 | 0.00 | 40 | 1005.6 |
| 20260503172517 | 19 | 338 | 6.4 | 22.5 | 0.00 | 0.00 | 0.00 | 41 | 1005.6 |
| 20260503171538 | 19 | 338 | 9.7 | 24.1 | 0.00 | 0.00 | 0.00 | 40 | 1005.8 |
| 20260503170516 | 20 | 315 | 8.0 | 16.1 | 0.00 | 0.00 | 0.00 | 42 | 1005.7 |
| 20260503150537 | 17 | 315 | 3.2 | 17.7 | 0.00 | 0.00 | 0.00 | 51 | 1005.4 |
| 20260503130516 | 10 | 203 | 3.2 | 6.4 | 0.00 | 0.00 | 0.00 | 71 | 1004.7 |
| 20260503110536 | 6 | 0.0 | 0.0 | 0.00 | 0.00 | 0.00 | 80 | 1003.5 | |
| 20260503081516 | 11 | 203 | 3.2 | 6.4 | 0.00 | 0.00 | 0.00 | 59 | 1004.4 |
| 20260503080536 | 11 | 203 | 4.8 | 8.0 | 0.00 | 0.00 | 0.00 | 59 | 1004.6 |
| 20260503072516 | 12 | 203 | 4.8 | 8.0 | 0.00 | 0.00 | 0.00 | 56 | 1004.9 |
| 20260503071516 | 12 | 203 | 3.2 | 6.4 | 0.00 | 0.00 | 0.00 | 56 | 1005.1 |
| 20260503070516 | 12 | 203 | 3.2 | 6.4 | 0.00 | 0.00 | 0.00 | 56 | 1005.3 |
| 20260503054516 | 13 | 203 | 3.2 | 8.0 | 0.00 | 0.00 | 0.00 | 53 | 1006.6 |
| 20260503053516 | 13 | 203 | 3.2 | 8.0 | 0.00 | 0.00 | 0.00 | 53 | 1006.7 |
| 20260503052536 | 13 | 203 | 3.2 | 6.4 | 0.00 | 0.00 | 0.00 | 53 | 1006.8 |
| 20260503051516 | 13 | 203 | 3.2 | 6.4 | 0.00 | 0.00 | 0.00 | 52 | 1006.9 |
| 20260503050516 | 13 | 203 | 1.6 | 4.8 | 0.00 | 0.00 | 0.00 | 52 | 1007.0 |
| 20260503045516 | 13 | 203 | 1.6 | 4.8 | 0.00 | 0.00 | 0.00 | 51 | 1007.1 |
| 20260503044516 | 13 | 203 | 1.6 | 3.2 | 0.00 | 0.00 | 0.00 | 50 | 1007.3 |
| 20260503043515 | 13 | 203 | 1.6 | 3.2 | 0.00 | 0.00 | 0.00 | 49 | 1007.4 |
| 20260503042516 | 13 | 203 | 1.6 | 4.8 | 0.00 | 0.00 | 0.00 | 49 | 1007.4 |
| 20260503041535 | 14 | 203 | 3.2 | 8.0 | 0.00 | 0.00 | 0.00 | 49 | 1007.6 |
| 20260503040515 | 14 | 203 | 1.6 | 3.2 | 0.00 | 0.00 | 0.00 | 48 | 1007.9 |